Petersburg, WV

9:57 PM EST on December 14, 2019 (GMT -0500)
Petersburg

Weather History for KW99 - September, 2019

Change the Weather History Date:

Wednesday, September 11, 2019

  Actual Average (KEKN) Record (KEKN)
Temperature  
Mean Temperature 78 °F -  
Max Temperature 94 °F 74 °F 91 °F (1925)
Min Temperature 61 °F 49 °F 34 °F (1917)
Cooling Degree Days 12    
Growing Degree Days 28 (Base 50)    
Moisture  
Dew Point 67 °F    
Average Humidity 76    
Maximum Humidity 100    
Minimum Humidity 39    
Precipitation  
Precipitation 0.00 in - - ()
Sea Level Pressure  
Sea Level Pressure 30.18 in    
Wind  
Wind Speed 3 mph (West)    
Max Wind Speed 13 mph    
Max Gust Speed 26 mph    
Visibility 8 miles    
Events Rain    
Averages and records for this station are not official NWS values.
T = Trace of Precipitation, MM = Missing Value Source: NWS Daily Summary

Daily Weather History Graph

Daily Weather History Graph

Search for Another Location

Airport or City:

Astronomy

Sep. 11, 2019 Rise Set
Actual Time 6:54 AM EDT 7:31 PM EDT
Civil Twilight 6:27 AM EDT 7:58 PM EDT
Nautical Twilight 5:55 AM EDT 8:30 PM EDT
Astronomical Twilight 5:22 AM EDT 9:02 PM EDT
Moon 6:41 PM EDT (9/11) 4:16 AM EDT (9/11)
Length of Visible Light 13h 31m
Length of Day
12h 37m
Waxing Gibbous, 94% of the Moon is Illuminated
Sep 11
Waxing Gibbous
Sep 14
Full
Sep 21
Last Quarter
Sep 28
New
Oct 5
First Quarter

Hourly Weather History & Observations

Time (EDT) Temp. Heat Index Dew Point Humidity Pressure Visibility Wind Dir Wind Speed Gust Speed Precip Events Conditions
12:15 AM 66.7 °F - 65.7 °F 96% 30.25 in 10.0 mi SSE 4.6 mph - N/A   Clear
12:35 AM 71.2 °F - 67.1 °F 87% 30.25 in 10.0 mi WSW 3.5 mph - N/A   Clear
12:55 AM 66.4 °F - 65.8 °F 98% 30.25 in 7.0 mi West 3.5 mph - N/A   Clear
1:15 AM 64.8 °F - 64.4 °F 99% 30.25 in 5.0 mi WNW 4.6 mph - N/A   Clear
1:35 AM 65.5 °F - 65.3 °F 99% 30.25 in 5.0 mi Calm Calm - N/A   Clear
1:50 AM 64.2 °F - 63.9 °F 99% 30.24 in 5.0 mi WNW 3.5 mph - N/A   Clear
2:15 AM 64.4 °F - 64.2 °F 99% 30.24 in 5.0 mi Calm Calm - N/A   Clear
2:35 AM 64.2 °F - 64.2 °F 100% 30.23 in 5.0 mi West 3.5 mph - N/A   Clear
2:55 AM 64.8 °F - 64.6 °F 99% 30.22 in 7.0 mi SW 4.6 mph - N/A   Clear
3:15 AM 73.0 °F - 67.6 °F 83% 30.22 in 10.0 mi SSW 8.1 mph - N/A   Clear
3:35 AM 68.4 °F - 64.6 °F 88% 30.21 in 10.0 mi West 3.5 mph - N/A   Clear
3:55 AM 65.5 °F - 64.4 °F 96% 30.22 in 7.0 mi NW 3.5 mph - N/A   Clear
4:15 AM 63.5 °F - 63.1 °F 99% 30.22 in 7.0 mi West 5.8 mph - N/A   Clear
4:30 AM 63.9 °F - 63.7 °F 99% 30.22 in 5.0 mi WNW 3.5 mph - N/A   Clear
4:55 AM 64.8 °F - 64.6 °F 99% 30.21 in 7.0 mi WNW 3.5 mph - N/A   Clear
5:15 AM 62.6 °F - 62.2 °F 99% 30.22 in 5.0 mi NW 3.5 mph - N/A   Clear
5:35 AM 61.9 °F - 61.7 °F 99% 30.22 in 5.0 mi Calm Calm - N/A   Clear
5:55 AM 61.9 °F - 61.7 °F 99% 30.22 in 5.0 mi Calm Calm - N/A   Clear
6:15 AM 61.7 °F - 61.7 °F 100% 30.22 in 5.0 mi Calm Calm - N/A   Clear
6:30 AM 62.2 °F - 62.2 °F 100% 30.23 in 4.0 mi Calm Calm - N/A   Clear
6:55 AM 61.5 °F - 61.5 °F 100% 30.24 in 3.0 mi Calm Calm - N/A   Clear
7:15 AM 62.4 °F - 62.4 °F 100% 30.24 in 4.0 mi Calm Calm - N/A   Clear
7:35 AM 62.1 °F - 62.1 °F 100% 30.25 in 3.0 mi Calm Calm - N/A   Clear
7:55 AM 64.0 °F - 64.0 °F 100% 30.25 in 5.0 mi Calm Calm - N/A   Clear
8:15 AM 65.7 °F - 65.3 °F 99% 30.25 in 5.0 mi Calm Calm - N/A   Clear
8:35 AM 67.8 °F - 66.6 °F 96% 30.25 in 7.0 mi Calm Calm - N/A   Clear
8:55 AM 69.6 °F - 67.5 °F 93% 30.25 in 10.0 mi Calm Calm - N/A   Clear
9:15 AM 71.4 °F - 68.2 °F 89% 30.25 in 10.0 mi Calm Calm - N/A   Clear
9:35 AM 74.3 °F - 69.3 °F 84% 30.25 in 10.0 mi Calm Calm - N/A   Clear
9:55 AM 76.1 °F - 69.6 °F 80% 30.25 in 10.0 mi Calm Calm - N/A   Clear
10:15 AM 78.3 °F - 70.0 °F 76% 30.24 in 10.0 mi Calm Calm - N/A   Clear
10:35 AM 80.6 °F 83.9 °F 70.2 °F 70% 30.23 in 10.0 mi Calm Calm - N/A   Clear
10:55 AM 83.5 °F 88.2 °F 71.2 °F 66% 30.22 in 10.0 mi Calm Calm - N/A   Clear
11:15 AM 86.2 °F 92.2 °F 71.6 °F 62% 30.22 in 10.0 mi Calm Calm - N/A   Clear
11:35 AM 88.9 °F 93.0 °F 68.5 °F 51% 30.21 in 10.0 mi Calm Calm - N/A   Clear
11:55 AM 89.4 °F 93.1 °F 68.2 °F 49% 30.20 in 10.0 mi Calm Calm - N/A   Clear
12:15 PM 90.0 °F 93.6 °F 67.6 °F 48% 30.19 in 10.0 mi Calm Calm - N/A   Clear
12:35 PM 91.8 °F 95.5 °F 67.6 °F 45% 30.18 in 10.0 mi WSW 10.4 mph - N/A   Clear
12:55 PM 92.3 °F 95.6 °F 66.9 °F 43% 30.18 in 10.0 mi West 6.9 mph - N/A   Clear
1:15 PM 92.8 °F 96.1 °F 66.7 °F 42% 30.17 in 10.0 mi West 9.2 mph - N/A   Scattered Clouds
1:35 PM 93.2 °F 96.2 °F 66.6 °F 41% 30.17 in 10.0 mi West 5.8 mph - N/A   Scattered Clouds
1:55 PM 93.4 °F 97.0 °F 66.9 °F 42% 30.16 in 10.0 mi West 8.1 mph - N/A   Clear
2:15 PM 93.7 °F 96.2 °F 65.7 °F 39% 30.15 in 10.0 mi West 9.2 mph - N/A   Scattered Clouds
2:35 PM 94.1 °F 96.9 °F 65.5 °F 39% 30.14 in 10.0 mi West 10.4 mph - N/A   Scattered Clouds
2:55 PM 93.4 °F 95.6 °F 65.1 °F 39% 30.14 in 10.0 mi WNW 11.5 mph 26.5 mph N/A   Scattered Clouds
3:15 PM 90.9 °F 94.0 °F 66.9 °F 45% 30.13 in 10.0 mi NW 6.9 mph - N/A   Scattered Clouds
3:35 PM 92.5 °F 95.0 °F 65.5 °F 41% 30.12 in 10.0 mi West 12.7 mph - N/A   Scattered Clouds
3:55 PM 92.3 °F 95.6 °F 67.1 °F 43% 30.12 in 10.0 mi West 9.2 mph - N/A   Clear
4:15 PM 91.9 °F 94.5 °F 66.0 °F 42% 30.11 in 10.0 mi WSW 8.1 mph - N/A   Clear
4:35 PM 92.5 °F 95.0 °F 65.3 °F 41% 30.10 in 10.0 mi West 9.2 mph - N/A   Clear
4:55 PM 91.0 °F 93.8 °F 66.0 °F 44% 30.10 in 10.0 mi NW 6.9 mph - N/A   Scattered Clouds
5:15 PM 89.4 °F 91.5 °F 65.7 °F 45% 30.11 in 10.0 mi NNW 5.8 mph - N/A   Mostly Cloudy
5:35 PM 89.8 °F 92.5 °F 66.4 °F 46% 30.10 in 10.0 mi NNW 3.5 mph - N/A   Overcast
5:55 PM 88.7 °F 90.8 °F 65.7 °F 46% 30.11 in 10.0 mi NW 4.6 mph - N/A   Scattered Clouds
6:15 PM 85.8 °F 89.4 °F 68.5 °F 56% 30.12 in 10.0 mi Calm Calm - N/A   Scattered Clouds
6:35 PM 84.4 °F 88.7 °F 70.0 °F 62% 30.12 in 10.0 mi Calm Calm - N/A   Scattered Clouds
6:55 PM 82.8 °F 86.4 °F 69.6 °F 64% 30.12 in 10.0 mi WNW 4.6 mph - N/A   Scattered Clouds
7:15 PM 80.6 °F 84.2 °F 70.9 °F 72% 30.12 in 10.0 mi West 3.5 mph - N/A   Clear
7:35 PM 79.3 °F - 70.7 °F 75% 30.13 in 10.0 mi Calm Calm - N/A   Clear
7:55 PM 79.2 °F - 69.8 °F 73% 30.12 in 10.0 mi Calm Calm - N/A   Clear
8:15 PM 76.6 °F - 70.9 °F 82% 30.12 in 10.0 mi Calm Calm - N/A   Clear
8:35 PM 76.1 °F - 70.5 °F 83% 30.14 in 10.0 mi WNW 3.5 mph - N/A   Clear
8:55 PM 76.1 °F - 70.7 °F 83% 30.15 in 10.0 mi Calm Calm - N/A Rain Light Rain
9:15 PM 75.0 °F - 71.1 °F 87% 30.15 in 10.0 mi Calm Calm - N/A   Light Drizzle
9:35 PM 74.5 °F - 71.6 °F 91% 30.14 in 10.0 mi Calm Calm - N/A Rain Light Rain
9:55 PM 74.3 °F - 71.6 °F 91% 30.15 in 10.0 mi SSE 3.5 mph - N/A   Scattered Clouds
10:15 PM 73.8 °F - 71.1 °F 91% 30.15 in 10.0 mi West 3.5 mph - N/A   Clear
10:35 PM 72.9 °F - 71.4 °F 95% 30.14 in 10.0 mi Calm Calm - N/A   Clear
10:55 PM 73.4 °F - 71.2 °F 93% 30.14 in 10.0 mi Calm Calm - N/A   Clear
11:10 PM 72.5 °F - 70.9 °F 95% 30.14 in 10.0 mi Calm Calm - N/A   Clear
11:35 PM 70.9 °F - 70.3 °F 98% 30.14 in 7.0 mi Calm Calm - N/A   Clear
11:55 PM 70.0 °F - 67.6 °F 92% 30.14 in 10.0 mi Calm Calm - N/A   Clear